Manchester, NH

12:26 AM EDT on July 31, 2016 (GMT -0400)
Manchester

Weather History for KMHT - April, 2013

Change the Weather History Date:

Friday, April 12, 2013

  Actual Average Record
Temperature  
Mean Temperature 37 °F 46 °F  
Max Temperature 41 °F 56 °F 73 °F (1987)
Min Temperature 33 °F 36 °F 17 °F (1976)
Degree Days  
Heating Degree Days 28 19  
Month to date heating degree days 257  
Since 1 July heating degree days 5817  
Cooling Degree Days 0 0  
Month to date cooling degree days 0  
Year to date cooling degree days 0  
Moisture  
Dew Point 31 °F    
Average Humidity 83    
Maximum Humidity 96    
Minimum Humidity 55    
Precipitation  
Precipitation 0.44 in 0.15 in 0.82 in (2007)
Month to date precipitation 2.05  
Year to date precipitation 12.18  
Snow  
Snow 0.00 in - - ()
Month to date snowfall  
Since 1 July snowfall  
Snow Depth -    
Sea Level Pressure  
Sea Level Pressure 30.05 in    
Wind  
Wind Speed 7 mph (ENE)    
Max Wind Speed 14 mph    
Max Gust Speed 21 mph    
Visibility 5 miles    
Events Rain , Snow    
T = Trace of Precipitation, MM = Missing Value Source: NWS Daily Summary

Daily Weather History Graph

Daily Weather History Graph

Search for Another Location

Airport or City:

Trip Planner

Search our weather history database for the weather conditions in past years. The results will help you decide how hot, cold, wet, or windy it might be!

Date:

Astronomy

Apr. 12, 2013 Rise Set
Actual Time 6:08 AM EDT 7:24 PM EDT
Civil Twilight 5:39 AM EDT 7:54 PM EDT
Nautical Twilight 5:04 AM EDT 8:29 PM EDT
Astronomical Twilight 4:27 AM EDT 9:06 PM EDT
Moon 7:13 AM EDT (4/12) 9:56 PM EDT (4/12)
Length of Visible Light 14h 14m
Length of Day
13h 16m
Waxing Crescent, 5% of the Moon is Illuminated
Apr 12
Waxing Crescent
Apr 18
First Quarter
Apr 25
Full
May 2
Last Quarter
May 9
New

Hourly Weather History & Observations

Time (EDT) Temp. Windchill Dew Point Humidity Pressure Visibility Wind Dir Wind Speed Gust Speed Precip Events Conditions
12:53 AM 41.0 °F 39.0 °F 30.9 °F 67% 30.19 in 10.0 mi North 3.5 mph - N/A   Overcast
1:53 AM 41.0 °F 39.0 °F 28.0 °F 60% 30.19 in 10.0 mi NNE 3.5 mph - N/A   Overcast
2:53 AM 39.9 °F 34.5 °F 25.0 °F 55% 30.19 in 10.0 mi ENE 8.1 mph - 0.00 in Rain Light Rain
3:53 AM 37.0 °F 32.4 °F 30.0 °F 76% 30.21 in 8.0 mi ENE 5.8 mph - 0.03 in Rain Light Rain
4:53 AM 35.1 °F 28.6 °F 28.9 °F 78% 30.23 in 10.0 mi NE 8.1 mph - 0.01 in Rain Light Rain
5:53 AM 35.1 °F 28.6 °F 28.0 °F 76% 30.23 in 10.0 mi NE 8.1 mph - 0.00 in   Overcast
6:53 AM 34.0 °F 26.6 °F 28.9 °F 82% 30.23 in 10.0 mi NE 9.2 mph - N/A   Overcast
7:53 AM 34.0 °F 28.8 °F 28.9 °F 82% 30.22 in 10.0 mi NE 5.8 mph - 0.00 in Rain Light Rain
8:20 AM 33.8 °F 28.6 °F 28.4 °F 81% 30.17 in 10.0 mi NE 5.8 mph - 0.00 in   Overcast
8:53 AM 35.1 °F 28.6 °F 28.9 °F 78% 30.19 in 10.0 mi ENE 8.1 mph - 0.00 in   Overcast
9:53 AM 36.0 °F 27.1 °F 27.0 °F 70% 30.17 in 10.0 mi East 13.8 mph - N/A   Overcast
10:09 AM 35.6 °F 28.0 °F 26.6 °F 70% 30.11 in 10.0 mi East 10.4 mph 19.6 mph N/A   Overcast
10:11 AM 35.6 °F 28.6 °F 26.6 °F 70% 30.10 in 10.0 mi ENE 9.2 mph 19.6 mph N/A   Overcast
10:53 AM 37.0 °F 28.9 °F 26.1 °F 65% 30.13 in 10.0 mi East 12.7 mph 20.7 mph N/A   Overcast
11:53 AM 34.0 °F 29.8 °F 30.9 °F 89% 30.13 in 3.0 mi East 4.6 mph - 0.09 in Rain Rain
12:23 PM 33.8 °F 28.6 °F 30.2 °F 87% 30.06 in 2.5 mi East 5.8 mph - 0.06 in   Ice Pellets
12:45 PM 33.8 °F 27.0 °F 30.2 °F 87% 30.04 in 3.0 mi East 8.1 mph - 0.13 in Rain Rain
12:53 PM 34.0 °F 27.2 °F 30.9 °F 89% 30.08 in 2.5 mi East 8.1 mph - 0.16 in Rain Rain
1:00 PM 33.8 °F 27.7 °F 30.2 °F 87% 30.04 in 3.0 mi East 6.9 mph - 0.02 in Rain Rain
1:08 PM 33.8 °F 28.6 °F 30.2 °F 87% 30.05 in 3.0 mi ESE 5.8 mph - 0.04 in Rain Rain
1:19 PM 33.8 °F 28.6 °F 30.2 °F 87% 30.05 in 2.5 mi East 5.8 mph - 0.08 in Rain Rain
1:26 PM 33.8 °F 26.4 °F 30.2 °F 87% 30.04 in 3.0 mi East 9.2 mph - 0.10 in Rain Rain
1:35 PM 35.6 °F 28.0 °F 30.2 °F 81% 30.03 in 4.0 mi ENE 10.4 mph - 0.10 in Rain Light Rain
1:53 PM 35.1 °F 27.4 °F 30.9 °F 85% 30.06 in 5.0 mi East 10.4 mph - 0.11 in Rain Light Ice Pellets
2:32 PM 35.6 °F 29.9 °F 32.0 °F 87% 30.00 in 3.0 mi ESE 6.9 mph - 0.01 in Rain , Snow Light Rain
2:41 PM 35.6 °F 32.8 °F 32.0 °F 87% 30.00 in 2.5 mi ENE 3.5 mph - 0.01 in Snow Light Ice Pellets
2:53 PM 35.1 °F 29.3 °F 32.0 °F 89% 30.04 in 2.5 mi ENE 6.9 mph - 0.02 in Rain , Snow Light Ice Pellets
3:13 PM 35.6 °F 30.7 °F 32.0 °F 87% 29.98 in 4.0 mi ENE 5.8 mph - 0.01 in Rain Light Ice Pellets
3:35 PM 35.6 °F 29.2 °F 33.8 °F 93% 29.97 in 4.0 mi East 8.1 mph - 0.01 in Rain Light Rain
3:53 PM 36.0 °F 32.1 °F 33.1 °F 89% 30.01 in 5.0 mi ENE 4.6 mph - 0.01 in Rain Light Rain
4:53 PM 36.0 °F 31.1 °F 33.1 °F 89% 29.99 in 4.0 mi ENE 5.8 mph - 0.00 in   Light Drizzle
5:30 PM 35.6 °F 29.2 °F 33.8 °F 93% 29.93 in 2.5 mi ENE 8.1 mph - 0.00 in   Light Drizzle
5:53 PM 36.0 °F 31.1 °F 33.1 °F 89% 29.98 in 1.5 mi NE 5.8 mph - 0.00 in   Light Drizzle
6:53 PM 35.1 °F 28.6 °F 33.1 °F 92% 29.94 in 1.8 mi ENE 8.1 mph - 0.00 in   Light Drizzle
7:53 PM 35.1 °F 27.4 °F 33.1 °F 92% 29.93 in 2.0 mi NNE 10.4 mph - 0.00 in   Light Drizzle
8:53 PM 35.1 °F 29.3 °F 34.0 °F 96% 29.93 in 2.5 mi North 6.9 mph - 0.01 in Rain Light Rain
9:31 PM 35.6 °F 30.7 °F 33.8 °F 93% 29.87 in 3.0 mi North 5.8 mph - 0.00 in   Overcast
9:53 PM 36.0 °F 29.6 °F 33.1 °F 89% 29.90 in 4.0 mi North 8.1 mph - 0.00 in   Overcast
10:53 PM 36.0 °F 28.5 °F 34.0 °F 93% 29.89 in 4.0 mi North 10.4 mph - N/A   Overcast
11:12 PM 35.6 °F 29.2 °F 33.8 °F 93% 29.83 in 2.5 mi North 8.1 mph - 0.00 in   Light Drizzle
11:53 PM 36.0 °F 29.6 °F 34.0 °F 93% 29.88 in 2.5 mi North 8.1 mph - 0.00 in   Light Drizzle